Location: Bessat
(45.8735°N, 1.9924°E)
Time: 06:46:42
(UTC+00:00)

SL-8 Rocket - Pass Details

Date: 11 May 2021
Orbit: 957 x 990 km, 82.9° (Epoch: 15 June)

Event Time Altitude Azimuth Distance (km) Brightness Sun altitude
Rises 22:31:02 0° 352° (N) 3,715 8.4 -23.6°
Reaches altitude 10° 22:33:35 10° 353° (N) 2,763 7.4 -23.8°
Maximum altitude 22:39:57 81° 81° (E) 1,006 3.9 -24.1°
Enters shadow 22:41:33 53° 159° (SSE) 1,198 4.0 -24.2°
